Temperature
13 13 13 13 13 12 12 12 12 12 12 12 12 12 12 12 12 12 12 12 13 13 13 13 13 13 13 14 14 14 14 14 14 15 15 15 15 15 15 15 15 15 15
14 13 13 13 13 12 12 12 12 12 12 12 12 12 12 12 12 12 12 12 12 13 13 13 13 13 13 13 14 14 14 14 14 14 14 14 15 15 15 15 15 15 15
14 13 13 13 13 12 12 12 12 12 12 12 12 12 12 12 12 12 12 12 12 13 13 13 13 13 13 13 13 14 14 14 14 14 14 14 14 14 14 14 14 14 14
14 13 13 13 13 13 12 12 12 12 12 12 12 12 12 12 12 12 12 12 12 12 13 13 13 13 13 13 13 13 13 14 14 14 14 14 14 14 14 14 14 14 14
14 14 13 13 13 13 13 12 12 12 12 12 12 12 12 12 12 12 12 12 12 12 13 13 13 13 13 13 13 13 13 13 13 13 14 14 14 14 14 14 14 14 14
14 14 14 13 13 13 13 13 12 12 12 12 12 12 12 12 12 12 12 12 12 12 12 13 13 13 13 13 13 13 13 13 13 13 13 13 14 14 14 14 14 14 13
15 14 14 14 13 13 13 13 13 12 12 12 12 12 12 12 12 12 12 12 12 12 12 12 13 13 13 13 13 13 13 13 13 13 13 13 13 14 14 13 13 14 14
15 15 14 14 14 13 13 13 13 13 13 12 12 12 12 12 12 12 12 12 12 12 12 12 12 12 12 12 13 13 13 13 13 13 13 13 14 14 14 14 13 13 13
15 15 14 14 14 14 14 13 13 13 13 13 12 12 12 12 12 12 12 12 12 12 12 12 12 12 12 12 12 13 13 13 13 13 13 13 13 13 13 13 13 13 12
15 15 15 14 14 14 14 14 13 13 13 13 13 13 12 12 12 12 12 12 12 12 12 12 12 12 12 12 12 12 13 13 13 13 13 13 13 13 13 13 13 13 12
15 15 15 15 14 14 14 14 14 13 13 13 13 13 13 13 12 12 12 12 12 12 12 12 12 12 12 12 12 12 12 12 12 12 13 13 13 13 13 13 13 12 12
15 15 15 15 15 14 14 14 14 14 14 14 13 13 13 13 13 12 12 12 12 12 12 12 12 12 12 12 12 12 12 12 12 12 12 12 12 12 12 12 12 12 12
15 15 15 15 15 14 14 14 14 14 14 14 13 13 13 13 13 13 12 12 12 12 12 12 12 12 12 12 12 12 12 12 12 12 12 12 12 12 12 12 12 12 12
15 15 15 15 15 14 14 14 14 14 14 14 13 13 13 13 13 13 13 12 12 12 12 12 12 12 12 12 12 12 12 12 12 12 12 12 12 12 12 12 12 12 12
15 15 15 14 14 14 14 14 14 14 13 13 13 13 13 13 13 13 13 13 12 12 12 12 12 12 12 12 12 12 12 12 12 12 12 12 12 11 11 11 11 11 11
15 14 14 14 14 14 14 14 13 13 13 13 13 13 13 13 13 13 13 13 12 12 12 12 12 12 12 12 11 11 11 11 11 11 11 11 11 11 11 11 11 11 11
14 14 14 13 13 13 13 13 13 13 13 13 13 13 13 13 13 13 13 13 12 12 12 12 11 11 11 11 11 11 11 11 11 11 11 11 11 11 11 11 11 11 11
13 13 13 12 12 12 12 12 12 12 12 13 12 12 12 12 12 13 12 12 12 12 11 11 11 11 11 11 11 11 11 11 11 11 11 11 11 11 11 11 11 11 11
13 12 12 12 12 12 11 11 11 11 11 11 12 12 12 12 12 12 12 12 11 11 11 11 11 11 11 11 11 11 11 11 10 10 11 11 11 10 10 10 10 10 10
12 11 11 11 11 11 11 11 11 11 11 10 11 11 11 11 11 11 11 11 11 11 10 10 10 10 10 10 10 10 10 10 10 10 10 10 10 10 10 10 10 10 10
11 11 10 10 10 10 10 10 10 10 10 9 9 9 10 10 10 10 9 9 9 9 9 9 9 9 10 10 10 10 10 10 10 10 10 10 10 10 10 10 10 10 10
10 10 9 9 9 9 9 9 9 9 9 8 8 8 8 9 8 8 8 8 8 8 8 8 9 8 8 9 9 9 9 9 9 9 9 9 9 9 9 9 10 10 10
9 9 8 8 8 8 8 8 8 8 7 7 7 7 7 7 7 7 7 7 7 7 7 7 7 7 7 7 8 7 8 8 8 8 8 8 8 9 9 9 9 9 9
8 8 8 7 7 7 7 7 7 6 6 6 6 6 6 6 6 6 6 6 6 6 6 6 6 6 6 6 6 6 6 6 7 7 7 7 8 8 8 8 9 9 9
7 7 7 7 6 6 6 6 6 6 5 5 5 5 5 5 5 5 5 5 5 5 5 5 5 5 5 5 5 5 5 5 5 5 6 6 7 7 7 7 8 8 8
7 6 6 6 6 6 5 5 5 5 5 4 4 4 4 4 4 4 4 4 4 4 4 4 4 4 4 4 4 4 4 4 5 5 5 5 6 6 6 7 7 7 8
Wind_Speed
2 1 2 3 3 4 3 4 4 4 5 5 5 5 4 4 3 1 2 2 2 2 2 2 3 2 2 2 2 3 3 4 4 3 2 3 3 4 4 6 8 8 11
2 1 1 2 3 3 4 4 4 5 5 5 4 4 4 4 3 2 2 2 2 2 3 2 3 2 2 2 2 3 3 3 4 3 2 3 4 5 5 6 6 7 7
2 1 1 2 3 3 4 4 4 4 5 5 4 4 4 4 4 3 2 2 2 2 2 2 3 2 2 2 2 3 3 3 3 3 3 2 2 3 4 4 5 4 6
2 1 1 2 2 2 3 4 4 4 4 5 5 4 4 4 4 3 3 3 3 2 2 2 2 3 3 3 3 3 2 2 2 3 3 2 2 3 4 5 4 4 4
3 3 3 2 1 1 2 3 3 4 4 4 5 5 5 4 3 2 2 2 3 3 3 2 1 2 3 2 2 3 3 2 2 3 3 2 2 4 5 4 4 4 3
4 4 3 2 1 1 2 3 3 4 4 4 4 5 6 5 6 5 2 2 2 3 3 3 2 2 2 2 2 3 4 4 4 3 3 4 4 4 3 4 4 4 3
4 4 3 2 2 2 2 2 3 4 4 4 4 5 5 7 8 6 3 1 2 2 2 2 2 2 2 1 2 2 3 5 6 5 5 6 6 6 6 6 6 5 4
4 4 3 3 3 2 2 3 3 3 3 3 4 5 5 7 8 6 3 2 2 3 3 2 2 2 2 1 0 1 1 2 4 4 6 6 6 6 7 7 6 4 2
4 4 5 4 3 3 3 4 3 2 3 3 4 4 4 6 8 6 3 2 2 4 3 3 2 2 3 2 1 1 2 3 3 3 5 6 7 7 7 5 6 5 3
6 6 5 5 4 4 5 4 3 2 3 4 4 4 4 5 7 5 2 1 2 3 3 4 4 3 4 2 0 1 2 3 2 2 1 2 3 5 8 7 8 6 3
5 4 4 4 5 5 4 3 3 3 3 4 5 5 4 5 6 5 2 1 1 2 2 3 4 6 5 4 2 2 3 3 2 1 1 1 1 2 3 4 5 6 6
3 3 4 4 4 3 3 4 3 3 3 4 4 5 4 4 5 5 3 1 1 0 2 3 4 6 6 5 3 3 3 2 1 1 1 2 2 2 3 3 4 4 4
3 3 3 3 3 3 3 4 3 3 3 4 3 4 5 4 4 5 4 3 2 1 2 5 6 7 6 4 4 4 2 1 1 2 3 3 2 2 2 2 2 2 2
2 2 2 2 3 3 3 3 2 3 3 3 3 4 4 4 4 3 2 2 3 2 3 5 6 6 4 4 4 3 1 2 2 2 3 2 1 2 2 2 2 3 2
1 1 2 2 3 3 3 3 3 3 3 3 3 3 3 4 6 5 3 2 2 2 2 3 3 3 4 4 3 3 2 2 2 2 2 2 2 2 2 2 2 2 3
1 1 2 2 2 2 3 3 4 4 4 3 3 3 3 5 7 6 5 5 3 1 1 2 3 4 4 4 4 4 3 3 3 3 3 3 3 4 3 2 2 3 4
1 1 1 2 2 2 2 2 4 4 4 4 5 5 4 5 5 5 4 3 2 1 1 3 4 4 5 4 4 4 4 4 3 3 4 4 4 4 4 4 4 4 4
2 2 2 2 2 2 2 2 1 2 4 5 5 6 6 5 5 4 3 2 3 2 1 3 5 5 5 5 5 4 5 4 3 3 4 4 4 4 5 5 6 6 6
3 2 2 2 2 2 2 2 2 2 3 4 5 7 7 5 4 5 3 2 2 4 4 4 4 5 5 5 5 5 5 5 5 4 4 5 5 5 5 6 6 9 7
3 6 5 3 3 3 3 3 3 4 4 5 6 6 6 6 5 5 4 3 3 4 5 5 5 5 5 5 5 5 5 5 5 5 5 5 5 5 7 7 6 6 7
3 5 8 6 4 4 4 4 4 4 4 4 5 7 9 5 5 5 5 4 4 5 5 5 5 6 5 5 5 5 5 5 5 5 5 5 5 5 6 6 7 7 6
4 4 4 4 4 4 4 4 4 4 5 5 4 6 9 6 5 5 5 6 5 5 5 5 6 6 6 6 6 6 6 6 6 6 6 6 6 6 6 6 7 7 7
5 5 5 4 4 5 5 4 4 4 4 4 4 5 5 5 5 5 5 5 5 5 5 5 6 6 6 6 6 6 6 7 8 8 8 8 7 7 7 8 9 8 9
5 5 4 4 4 4 4 4 4 4 4 4 4 4 4 4 4 5 5 5 5 5 5 5 5 7 9 7 7 6 7 8 9 8 10 9 9 8 8 8 9 10 10
4 4 4 3 3 3 3 3 3 3 3 3 3 4 4 4 4 4 4 4 5 5 6 6 5 6 8 9 9 9 13 14 13 11 9 8 10 10 10 10 9 9 10
3 3 3 2 2 2 2 2 2 2 2 3 3 3 3 3 4 4 4 5 5 5 6 6 7 9 10 9 11 14 16 16 16 16 12 9 9 9 10 10 12 11 11
Wind_Direction
244 287 335 321 320 333 341 331 328 334 342 348 344 345 348 347 340 339 308 292 273 275 266 246 250 235 227 225 214 210 203 185 209 232 219 197 185 189 181 180 190 191 197
234 268 319 318 333 348 341 332 336 340 343 349 353 354 354 354 353 355 332 326 293 278 275 262 256 242 229 226 210 214 211 194 192 216 216 198 201 193 183 183 185 190 193
217 228 327 331 337 339 335 335 341 344 344 348 356 353 349 348 346 342 335 321 305 289 274 260 257 233 230 234 221 218 217 207 190 198 215 198 199 183 176 181 181 184 195
193 196 257 287 299 311 325 340 341 342 344 343 346 343 339 339 341 338 346 335 325 317 294 261 239 216 219 221 221 222 213 200 190 194 203 190 186 180 171 178 182 190 195
183 201 231 246 265 305 324 333 338 343 345 341 345 344 341 336 333 331 331 338 337 337 335 318 279 244 232 210 206 202 193 190 187 194 195 188 186 178 187 182 184 175 187
189 212 227 233 252 286 301 320 335 339 341 345 346 342 341 339 337 339 339 358 357 353 345 334 318 318 306 289 264 215 191 190 194 195 200 197 202 197 187 180 172 169 195
200 217 223 224 241 270 292 318 320 320 332 336 334 337 333 329 337 340 346 24 6 352 343 333 336 345 349 332 307 287 234 221 208 197 201 207 201 195 184 186 187 181 187
203 214 219 217 237 264 287 295 297 303 309 314 319 324 330 336 349 355 9 33 15 354 348 338 330 330 333 339 322 330 289 267 241 220 213 218 215 202 193 190 182 157 109
208 218 222 215 224 243 262 273 276 288 299 302 306 319 326 327 343 353 17 24 3 351 347 349 337 327 328 1 58 301 301 298 287 252 227 223 215 201 182 162 164 166 178
220 222 220 212 214 230 246 257 260 260 276 299 309 309 308 312 331 347 8 50 357 339 341 342 346 334 328 332 237 232 263 276 287 310 291 249 212 194 191 190 184 181 172
219 214 217 220 221 230 245 253 258 269 291 305 308 308 306 301 319 335 6 102 288 320 330 329 325 333 330 322 300 240 248 252 242 238 259 263 214 199 201 198 193 188 185
197 204 225 236 242 237 240 264 268 268 286 298 307 312 308 304 308 312 319 292 233 264 297 304 308 318 322 322 308 281 289 280 211 206 226 242 234 221 208 197 194 197 197
188 223 247 261 260 256 243 261 276 268 261 279 287 294 301 304 306 305 306 307 306 265 282 297 309 317 322 323 308 297 301 287 217 216 230 240 233 221 194 179 173 165 156
196 250 268 278 283 281 268 257 256 263 258 266 271 277 287 298 295 293 298 305 313 310 312 320 326 330 325 309 311 313 292 249 233 231 238 245 226 197 195 184 178 172 167
205 290 299 291 287 292 284 259 247 246 222 227 251 255 266 285 278 253 225 246 252 271 318 338 344 342 339 333 326 310 294 278 259 250 236 237 234 222 217 194 173 171 186
94 343 320 316 314 309 309 317 292 265 286 271 269 264 272 270 284 278 255 250 260 276 18 329 321 319 313 310 312 310 298 272 255 241 236 232 231 228 227 215 195 192 203
106 353 342 345 340 337 338 332 326 332 332 323 316 312 300 314 315 301 287 288 306 345 344 305 301 299 297 294 291 286 282 275 262 244 240 235 232 230 225 223 216 211 216
62 38 35 3 351 348 344 336 338 343 347 342 334 328 323 317 325 329 335 14 354 4 298 291 292 290 288 287 285 282 280 280 266 251 247 243 234 229 228 226 219 217 218
61 42 29 17 11 7 6 11 14 13 4 348 352 353 344 336 351 2 33 38 337 330 324 311 303 299 295 290 285 281 276 272 266 255 248 244 239 233 238 236 229 222 216
48 50 56 44 30 28 29 31 28 26 24 21 17 2 1 28 28 17 23 8 345 334 332 324 318 313 308 303 300 296 289 280 274 265 260 255 247 238 239 237 233 229 224
53 46 54 55 44 40 40 40 38 41 40 36 25 18 29 38 27 18 14 5 350 337 332 328 325 327 325 320 315 311 306 299 288 280 272 263 253 250 246 240 235 232 231
69 62 56 56 51 48 47 44 43 40 33 30 17 18 29 38 31 24 17 10 5 356 349 347 347 344 341 335 329 325 321 318 316 308 294 282 267 256 251 246 242 236 231
74 70 61 52 51 49 50 43 43 41 35 27 24 24 27 27 22 17 10 1 356 355 353 357 355 353 354 352 353 353 347 339 327 317 308 295 283 270 257 249 245 242 236
75 72 67 57 53 51 47 39 35 35 35 31 27 24 20 16 11 7 1 355 355 356 357 354 354 351 352 352 349 347 341 332 329 321 312 302 291 281 270 259 251 245 240
77 75 73 69 65 59 50 42 35 30 28 28 25 18 7 3 357 352 346 344 343 343 342 339 338 336 336 339 340 339 335 331 328 325 312 304 298 287 277 268 260 253 246
83 84 84 83 73 60 52 41 28 22 16 12 8 360 353 348 343 340 338 337 333 328 326 323 323 323 322 325 326 325 326 326 326 322 314 301 299 294 288 278 268 259 252
Height
1503 1501 1499 1497 1495 1492 1490 1487 1484 1481 1479 1476 1474 1471 1470 1468 1467 1466 1466 1467 1467 1467 1468 1469 1470 1471 1472 1473 1474 1476 1477 1479 1479 1480 1482 1484 1486 1488 1490 1492 1495 1497 1500
1502 1500 1499 1496 1494 1492 1489 1486 1484 1481 1479 1476 1473 1471 1469 1468 1466 1465 1465 1465 1465 1465 1466 1466 1467 1468 1469 1470 1471 1473 1474 1476 1477 1477 1479 1481 1482 1484 1486 1489 1491 1493 1496
1502 1500 1498 1496 1494 1491 1489 1486 1484 1481 1479 1476 1474 1471 1469 1468 1466 1465 1464 1464 1463 1463 1464 1464 1465 1466 1467 1468 1469 1470 1471 1473 1474 1474 1475 1477 1479 1481 1483 1485 1487 1490 1492
1501 1499 1497 1495 1494 1491 1489 1486 1484 1481 1479 1477 1474 1472 1470 1468 1466 1465 1464 1463 1462 1462 1462 1462 1463 1464 1464 1465 1466 1468 1469 1470 1471 1472 1473 1474 1476 1478 1480 1482 1484 1486 1488
1500 1498 1497 1495 1493 1491 1489 1487 1484 1482 1479 1477 1475 1472 1470 1468 1466 1465 1463 1462 1461 1461 1461 1461 1461 1462 1463 1463 1464 1465 1466 1467 1468 1469 1470 1471 1473 1474 1476 1478 1480 1482 1484
1499 1498 1496 1495 1493 1491 1489 1487 1485 1482 1480 1478 1475 1473 1471 1469 1467 1465 1464 1462 1461 1461 1460 1460 1460 1461 1461 1462 1462 1463 1464 1464 1465 1466 1467 1468 1469 1471 1473 1475 1477 1478 1480
1498 1497 1496 1494 1493 1491 1489 1487 1485 1483 1481 1478 1476 1473 1471 1469 1467 1465 1464 1463 1462 1461 1460 1460 1460 1459 1459 1460 1460 1461 1461 1462 1463 1464 1464 1465 1466 1468 1470 1471 1473 1475 1476
1497 1496 1495 1494 1492 1490 1489 1487 1485 1483 1481 1479 1476 1474 1472 1470 1468 1466 1465 1463 1462 1461 1460 1459 1459 1458 1458 1458 1458 1458 1459 1459 1460 1460 1461 1462 1464 1465 1467 1468 1469 1472 1473
1496 1495 1494 1493 1491 1490 1488 1487 1485 1483 1481 1479 1477 1475 1473 1471 1469 1467 1465 1464 1462 1461 1460 1459 1458 1458 1457 1457 1456 1456 1456 1457 1457 1458 1458 1459 1461 1462 1463 1465 1466 1468 1469
1495 1494 1493 1492 1491 1489 1488 1486 1485 1483 1481 1480 1478 1476 1473 1471 1469 1467 1466 1464 1463 1461 1460 1459 1458 1457 1456 1456 1455 1454 1454 1454 1455 1455 1456 1456 1457 1459 1460 1461 1463 1464 1465
1493 1492 1491 1491 1489 1488 1487 1486 1484 1483 1481 1479 1477 1476 1473 1471 1469 1468 1466 1464 1463 1461 1460 1459 1458 1457 1456 1455 1454 1453 1453 1453 1453 1453 1453 1454 1454 1455 1457 1458 1459 1461 1462
1491 1490 1490 1489 1488 1487 1486 1484 1483 1482 1480 1478 1477 1475 1473 1471 1469 1468 1466 1464 1463 1461 1460 1459 1457 1456 1455 1454 1453 1452 1452 1451 1451 1451 1451 1451 1452 1452 1454 1455 1456 1457 1459
1489 1488 1488 1487 1486 1485 1484 1483 1481 1480 1478 1477 1475 1473 1472 1470 1469 1467 1465 1464 1462 1461 1460 1459 1457 1456 1455 1453 1452 1451 1451 1450 1450 1449 1449 1449 1449 1450 1451 1452 1453 1454 1455
1486 1486 1485 1485 1484 1483 1482 1480 1479 1478 1476 1475 1473 1472 1470 1469 1467 1466 1464 1463 1461 1460 1459 1458 1456 1455 1454 1453 1452 1451 1450 1449 1448 1448 1447 1447 1448 1448 1449 1449 1450 1451 1452
1483 1483 1482 1482 1481 1480 1479 1478 1477 1476 1474 1473 1471 1470 1468 1467 1466 1464 1463 1461 1460 1459 1457 1456 1455 1454 1453 1452 1451 1449 1449 1448 1447 1446 1446 1446 1446 1446 1446 1447 1448 1448 1449
1481 1480 1479 1479 1478 1477 1476 1475 1475 1473 1472 1471 1469 1468 1466 1465 1464 1462 1461 1460 1459 1457 1456 1455 1453 1452 1451 1450 1449 1448 1447 1446 1446 1445 1444 1444 1444 1444 1444 1444 1445 1445 1446
1478 1477 1476 1476 1475 1474 1473 1472 1471 1471 1470 1468 1467 1465 1464 1462 1461 1460 1459 1458 1457 1455 1454 1453 1452 1450 1449 1448 1447 1446 1445 1444 1443 1443 1442 1442 1442 1441 1441 1441 1442 1442 1442
1475 1475 1474 1473 1472 1471 1470 1469 1468 1467 1466 1465 1464 1463 1462 1460 1459 1457 1456 1455 1454 1453 1452 1451 1449 1448 1447 1445 1444 1443 1442 1441 1440 1440 1439 1439 1438 1438 1437 1437 1438 1438 1438
1473 1472 1472 1471 1470 1469 1468 1467 1466 1465 1464 1462 1461 1460 1459 1457 1456 1455 1454 1453 1451 1450 1449 1448 1447 1445 1444 1443 1441 1440 1439 1438 1437 1436 1435 1435 1434 1434 1433 1433 1433 1433 1433
1471 1470 1470 1469 1468 1467 1466 1465 1464 1463 1461 1460 1458 1457 1456 1455 1453 1452 1451 1450 1449 1448 1447 1445 1444 1443 1441 1440 1438 1437 1435 1434 1433 1432 1431 1430 1430 1429 1428 1428 1428 1428 1428
1469 1468 1468 1467 1466 1465 1464 1463 1462 1461 1460 1459 1457 1456 1455 1453 1451 1450 1449 1448 1446 1445 1443 1442 1440 1439 1437 1436 1434 1433 1432 1430 1429 1428 1427 1426 1425 1424 1423 1422 1422 1422 1422
1467 1466 1466 1465 1465 1464 1463 1462 1461 1460 1459 1457 1456 1455 1453 1452 1450 1449 1447 1446 1444 1442 1441 1439 1437 1436 1434 1432 1430 1428 1427 1425 1424 1422 1421 1420 1419 1418 1417 1417 1416 1416 1416
1465 1465 1465 1464 1464 1463 1462 1461 1460 1459 1458 1456 1455 1453 1452 1450 1449 1447 1445 1444 1442 1440 1438 1436 1434 1432 1430 1428 1426 1424 1422 1420 1418 1416 1415 1413 1412 1411 1411 1410 1410 1409 1409
1464 1464 1464 1463 1463 1462 1461 1460 1459 1458 1456 1455 1453 1452 1450 1449 1447 1445 1444 1442 1440 1437 1435 1433 1430 1428 1425 1423 1421 1419 1416 1414 1412 1410 1408 1406 1405 1403 1403 1402 1402 1402 1402
1463 1463 1462 1462 1461 1461 1460 1459 1458 1456 1455 1454 1452 1450 1449 1447 1445 1443 1441 1439 1436 1434 1431 1429 1426 1423 1420 1418 1415 1413 1410 1408 1405 1403 1401 1399 1397 1395 1394 1394 1393 1393 1393
1462 1461 1461 1461 1460 1459 1459 1457 1456 1455 1454 1452 1451 1449 1447 1445 1443 1440 1438 1435 1432 1430 1427 1424 1421 1418 1415 1411 1408 1406 1403 1400 1397 1395 1393 1390 1388 1386 1385 1384 1384 1383 1383